Showing default

ICUBE 1, 39432

Orbit data source: Space-Track

ICUBE 1, 39432 is a payload satellite owned by IST (PK) in SSO that was launched on Thu, 21 Nov 2013 UTC via a DNEPR launch vehicle from the Orenburg, Russia (OREN). Payload-class satellites include a variety of spacecraft equipped with specific instruments for various scientific and technological missions. These include communications satellites like Starlink; space stations such as the ISS; scientific satellites like the Hubble; Earth observation satellites from companies like Planet Labs, Umbra, and HawkEye 360; GPS; miniature CubeSats for education and research; and military/defense satellites.

Loading next visibility...
Identifier
39432, 2013-066S
Orbit
SSO
Country
Flag of UnknownUnknown / PAKI
Related business
Manufacturer
IST
Mission
Non-operational Amateur Technology
Bus & Motor
CUBESAT 1U, Unknown motor
Mass
1.08 kg wet, 1.08 kg dry
Launch date (UTC)
2013-11-21 (12 years ago)
Launch vehicle
DNEPR
Launch site
Orenburg, Russia (OREN)
Object type
Payload
Rocket body
Debris
Shape & HBR
Box, 0.1 m
Radar Cross Section
0.015 m², Small (<0.1 m²)

Expand to show TLE details & history
Last TLE update: 6 hours ago

TLE from 6 hours ago
0 ICUBE 1
1 39432U 13066S   26037.86495637  .00019288  00000-0  84208-3 0  9996
2 39432  97.5615  22.3375 0020403  71.1309 289.2137 15.21983605664567
Epoch: 2026-02-06T20:45Z
TLE epoch observation values (Epoch: 2026-02-06T20:45:32.230Z)
Latitude
-0°
Longitude
-66.0435°
Altitude
498.353 km
Speed
7.618 km/s
True Right ascension
01h 29m 21s
True Declination
0° 00' 00"
Sunlit
Object was in daylight at epoch
Visualization orbit readout
Latitude
Unknown
Longitude
Unknown
Altitude
Unknown
Speed
Unknown
Apparent Right ascension
Unknown
Apparent Declination
Unknown
Sunlit
N/A
Visualization observer readout
Local Sidereal Time
04:30:50
Azimuth
Unknown
Elevation
Unknown
Doppler factor
Unknown
Orbital elements
Apogee altitude
510.855 km
Perigee altitude
482.801 km
Semi-major axis
6,874.965 km
Eccentricity
0.00204
Inclination
97.5615°
RAAN
22.3375°
Arg. of periapsis
71.1309°
True anomaly
288.99274°
Mean anomaly
289.2137°
Eccentric anomaly
289.10324°
Mean motion
3.80748 °/min
Orbital period
94.55 mins
BSTAR
0.00084208
Loading maneuver chart data...
Computing Atmospheric mass density...
Loading historical data...
Loading historical data...
Loading historical data...
Loading historical data...
Loading historical data...
Loading historical data...
Loading historical data...

Documentation

Showing up to 5 results
|